{"data":{"norad_id":44112,"epoch":"2026-05-25T00:35:33.641088Z","epoch_age_seconds":82967,"freshness":"FRESH","line1":"1 44112U 19020A   26145.02469492 -.00000024  00000+0  00000+0 0  9993","line2":"2 44112   0.0526   0.0921 0002502  54.1526 305.7780  5.00115581130416","mean_motion":5.00115581,"eccentricity":0.0002502,"inclination_deg":0.0526,"raan_deg":0.0921,"arg_perigee_deg":54.1526,"mean_anomaly_deg":305.778,"bstar":0,"rev_number":13041,"period_min":287.93344072997,"perigee_km":8062.2747634738,"apogee_km":8069.5025539134,"semimajor_km":14444.025658694,"source":"CELESTRAK","updated_at":"2026-05-25T13:38:14.515053Z"}}